Location: Spring Creek
(38.2870°N, 100.2160°W)
Time: 02:28:28
(UTC+00:00)

ATLAS 5 CENTAUR R/B - Pass Details

Date: 08 May 2021
Orbit: 513 x 1144 km, 63.3° (Epoch: 18 June)

Event Time Altitude Azimuth Distance (km) Brightness Sun altitude
Rises 02:59:22 0° 337° (NNW) 3,245 6.3 -14.7°
Reaches altitude 10° 03:02:00 10° 349° (N) 2,422 5.3 -15.1°
Maximum altitude 03:06:48 27° 47° (NE) 1,670 3.6 -15.8°
Enters shadow 03:10:23 17° 92° (E) 2,252 3.9 -16.4°
